Location: Newark
(27.9675°N, 86.8869°E)
Time: 07:04:33
(UTC+00:00)

Vanguard 3 - Pass Details

Date: 25 October 2019
Orbit: 508 x 3263 km, 33.4° (Epoch: 18 November)

Event Time Altitude Azimuth Distance (km) Brightness Sun altitude
Rises 12:57:49 0° 216° (SW) 5,548 12.0 -19.1°
Reaches altitude 10° 13:02:52 10° 206° (SSW) 4,013 11.0 -20.2°
Maximum altitude 13:10:26 25° 155° (SSE) 2,195 9.1 -21.8°
Enters shadow 13:11:58 24° 136° (SE) 2,122 8.9 -22.2°
Drops below altitude 10° 13:15:27 10° 101° (E) 2,567 - -22.9°
Sets 13:17:54 0° 87° (E) 3,240 - -23.5°
